Flag for Poland Weather past 2 weeks in Rzeszów, Poland

Now
30 °F

Ice fog.


Feels Like: 30 °F
Forecast: 26 / 36 °F
Wind: 2 mph from South

Location: Rzeszow-Jasionka

Current Time: Jan 27, 2015 at 12:16:19 AM

Latest Report: Jan 26, 2015 at 11:30 PM


Visibility: 1 mi

Pressure: 30.09 "Hg

Humidity: 93%

Dew point: 28 °F

Location of RzeszówLocation

Historic Weather in Rzeszów — Graph

°F

Rzeszów temperature yesterday

Maximum temperature yesterday: 32 °F (at 2:00 PM)
Minimum temperature yesterday: 28 °F (at 12:00 AM)
Average temperature yesterday: 30 °F

Past Weeks' High & Low Weather Summary

 TemperatureHumidityPressure
High48 °F (Jan 17, 1:00 PM)100% (Jan 15, 5:00 AM)30.24 "Hg (Jan 15, 5:00 AM)
Low28 °F (Jan 26, 12:00 AM)46% (Jan 17, 9:00 AM)29.77 "Hg (Jan 11, 11:00 PM)
Average37 °F87%30.00 "Hg
* Reported Jan 11 11:00 PM — Jan 26 11:30 PM, Rzeszów, Weather by CustomWeather, © 2014

Note: Actual official high and low records may vary slightly from our data, if they occured in-between our weather recording intervals... More about our weather records

Advertising

Rzeszów weather history for previous 24 hours

 ConditionsComfort  
Time TempWeatherWind HumidityBarometerVisibility
11:30 PM
Jan 26
30 °FIce fog.2 mph93%30.09 "Hg1 mi
11:00 PM30 °FIce fog.2 mph93%30.09 "Hg1 mi
10:30 PM30 °FIce fog.2 mph93%30.09 "Hg1 mi
10:00 PM30 °FIce fog.2 mph93%30.12 "Hg1 mi
9:30 PM30 °FIce fog.2 mph93%30.12 "Hg1 mi
9:00 PM30 °FLight snow. Ice fog.3 mph93%30.12 "Hg1 mi
8:30 PM30 °FLight snow. Ice fog.2 mph100%30.15 "Hg1 mi
8:00 PM30 °FLight snow. Ice fog.2 mph93%30.15 "Hg1 mi
7:30 PM30 °FLight snow. Ice fog.2 mph93%30.15 "Hg1 mi
7:00 PM30 °FLight snow. Ice fog.1 mph93%30.15 "Hg2 mi
6:30 PM30 °FLight snow. Ice fog.3 mph93%30.15 "Hg2 mi
6:00 PM30 °FLight snow. Ice fog.2 mph100%30.18 "Hg2 mi
5:30 PM30 °FLight snow. Ice fog.3 mph100%30.18 "Hg3 mi
5:00 PM32 °FLight snow. Ice fog.5 mph93%30.18 "Hg3 mi
4:30 PM30 °FLight snow. Ice fog.5 mph100%30.18 "Hg3 mi
4:00 PM32 °FLight snow. Cloudy.3 mph93%30.18 "Hg4 mi
3:30 PM32 °FLight snow. Cloudy.3 mph87%30.18 "Hg4 mi
3:00 PM32 °FLight snow. Broken clouds.5 mph87%30.18 "Hg4 mi
2:30 PM32 °FLight snow. Broken clouds.7 mph87%30.18 "Hg4 mi
2:00 PM32 °FMore clouds than sun.6 mph93%30.18 "Hg4 mi
1:30 PM30 °FMore clouds than sun.6 mph93%30.18 "Hg4 mi
1:00 PM30 °FIce fog.6 mph100%30.21 "Hg3 mi
12:30 PM30 °FLight snow. Ice fog.7 mph100%30.21 "Hg2 mi
12:00 PM30 °FLight snow. Ice fog.7 mph100%30.21 "Hg2 mi
11:30 AM30 °FLight snow. Ice fog.6 mph100%30.21 "Hg2 mi
11:00 AM30 °FLight snow. Ice fog.7 mph93%30.24 "Hg1 mi
10:30 AM30 °FLight snow. Ice fog.6 mph93%30.24 "Hg2 mi
10:00 AM30 °FLight snow. Ice fog.6 mph93%30.24 "Hg2 mi
9:30 AM30 °FLight snow. Ice fog.6 mph93%30.24 "Hg2 mi
9:00 AM30 °FLight snow. Ice fog.7 mph93%30.24 "Hg2 mi
8:30 AM30 °FIce fog.6 mph93%30.21 "Hg2 mi
8:00 AM30 °FLight snow. Ice fog.6 mph93%30.21 "Hg2 mi
7:30 AM28 °FLight snow. Ice fog.7 mph100%30.21 "Hg2 mi
7:00 AM28 °FLight snow. Ice fog.6 mph100%30.21 "Hg2 mi
6:30 AM28 °FLight snow. Ice fog.7 mph100%30.21 "Hg2 mi
6:00 AM28 °FLight snow. Ice fog.7 mph100%30.21 "Hg2 mi
5:30 AM28 °FLight snow. Ice fog.7 mph100%30.18 "Hg2 mi
5:00 AM28 °FLight snow. Ice fog.6 mph100%30.18 "Hg2 mi
4:30 AM28 °FLight snow. Ice fog.7 mph100%30.18 "Hg2 mi
4:00 AM28 °FLight snow. Ice fog.7 mph100%30.18 "Hg2 mi
3:30 AM28 °FLight snow. Ice fog.6 mph100%30.18 "Hg2 mi
3:00 AM28 °FLight snow. Ice fog.7 mph100%30.18 "Hg2 mi
2:30 AM28 °FLight snow. Ice fog.8 mph100%30.18 "Hg2 mi
2:00 AM28 °FLight snow. Ice fog.8 mph100%30.18 "Hg2 mi
1:30 AM28 °FMixture of precip. Partly cloudy.7 mph100%30.18 "Hg2 mi
1:00 AM28 °FLight snow. Ice fog.8 mph100%30.15 "Hg2 mi
12:30 AM28 °FLight snow. Ice fog.9 mph100%30.15 "Hg2 mi
12:00 AM28 °FLight snow. Ice fog.8 mph100%30.15 "Hg2 mi
Weather by CustomWeather, © 2014

See weather overviewHow to use our weather pages